BCS115 LKPR-EDDM

Flight info

Callsign BCS115
Flight time 0h 34m
Altitude 26000
Route DOBEN DCT LULAR DCT DM438
Aircraft A310/H-SDFGHIM1RTUWXY/LB1

Departure

Time 2026-05-06 18:03
Airport Václav Havel Airport Prague (LKPR)

Arrival

Time 2026-05-06 18:37
Airport Munich Airport (EDDM)
Time Latitude Longitude Altitude Speed Heading
2026-05-06 17:34 50.11095 14.26918 1178 ft 0 kts 245°
2026-05-06 17:45 50.11098 14.26927 1182 ft 3 kts 245°
2026-05-06 17:46 50.11106 14.26953 1181 ft 3 kts 245°
2026-05-06 17:46 50.11113 14.26979 1181 ft 3 kts 245°
2026-05-06 17:46 50.11115 14.27006 1182 ft 3 kts 283°
2026-05-06 17:46 50.11111 14.27033 1184 ft 3 kts 314°
2026-05-06 17:47 50.11098 14.27053 1182 ft 3 kts 324°
2026-05-06 17:47 50.11096 14.27056 1183 ft 0 kts 323°
2026-05-06 17:50 50.11118 14.27035 1184 ft 8 kts 329°
2026-05-06 17:51 50.11148 14.27012 1183 ft 0 kts 335°
2026-05-06 17:51 50.11149 14.27010 1183 ft 1 kts 335°
2026-05-06 17:51 50.11185 14.26965 1182 ft 11 kts 292°
2026-05-06 17:51 50.11145 14.26794 1176 ft 22 kts 245°
2026-05-06 17:52 50.11081 14.26584 1176 ft 22 kts 244°
2026-05-06 17:52 50.10975 14.26436 1174 ft 20 kts 214°
2026-05-06 17:52 50.10895 14.26349 1176 ft 2 kts 215°
2026-05-06 17:52 50.10875 14.26327 1175 ft 7 kts 214°
2026-05-06 17:53 50.10840 14.26290 1177 ft 8 kts 214°
2026-05-06 17:53 50.10765 14.26212 1176 ft 18 kts 214°
2026-05-06 17:53 50.10644 14.26082 1187 ft 21 kts 215°
2026-05-06 17:53 50.10537 14.25981 1193 ft 15 kts 196°
2026-05-06 17:54 50.10468 14.26044 1196 ft 12 kts 127°
2026-05-06 17:54 50.10394 14.26198 1198 ft 21 kts 127°
2026-05-06 17:54 50.10311 14.26369 1201 ft 19 kts 126°
2026-05-06 17:54 50.10236 14.26525 1204 ft 16 kts 128°
2026-05-06 17:55 50.10171 14.26660 1209 ft 17 kts 127°
2026-05-06 17:55 50.10093 14.26821 1213 ft 18 kts 128°
2026-05-06 17:55 50.10024 14.26963 1215 ft 18 kts 127°
2026-05-06 17:55 50.09936 14.27146 1216 ft 22 kts 127°
2026-05-06 17:56 50.09843 14.27328 1217 ft 21 kts 133°
2026-05-06 17:56 50.09746 14.27478 1220 ft 19 kts 135°
2026-05-06 17:56 50.09658 14.27614 1224 ft 16 kts 135°
2026-05-06 17:56 50.09591 14.27719 1229 ft 13 kts 135°
2026-05-06 17:57 50.09520 14.27827 1233 ft 13 kts 136°
2026-05-06 17:57 50.09467 14.27906 1252 ft 9 kts 136°
2026-05-06 17:57 50.09424 14.27972 1247 ft 12 kts 135°
2026-05-06 17:57 50.09342 14.28099 1256 ft 19 kts 135°
2026-05-06 17:58 50.09259 14.28228 1252 ft 13 kts 138°
2026-05-06 17:58 50.09213 14.28280 1252 ft 0 kts 155°
2026-05-06 17:59 50.09210 14.28282 1252 ft 3 kts 157°
2026-05-06 17:59 50.09166 14.28282 1254 ft 6 kts 201°
2026-05-06 17:59 50.09145 14.28260 1248 ft 0 kts 216°
2026-05-06 18:01 50.09141 14.28254 1254 ft 5 kts 217°
2026-05-06 18:01 50.09101 14.28187 1249 ft 10 kts 235°
2026-05-06 18:01 50.09094 14.28071 1249 ft 12 kts 290°
2026-05-06 18:02 50.09145 14.27960 1256 ft 17 kts 306°
2026-05-06 18:02 50.09312 14.27615 1238 ft 72 kts 307°
2026-05-06 18:02 50.09754 14.26702 1214 ft 137 kts 307°
2026-05-06 18:02 50.10435 14.25337 1344 ft 176 kts 308°
2026-05-06 18:03 50.11200 14.23773 1868 ft 186 kts 308°
2026-05-06 18:03 50.12010 14.22138 2544 ft 193 kts 307°
2026-05-06 18:03 50.12821 14.20509 2948 ft 193 kts 308°
2026-05-06 18:03 50.13680 14.18802 3459 ft 207 kts 307°
2026-05-06 18:04 50.14600 14.16942 3861 ft 226 kts 307°
2026-05-06 18:04 50.15585 14.14961 4424 ft 236 kts 306°
2026-05-06 18:04 50.16622 14.12887 5144 ft 248 kts 306°
2026-05-06 18:04 50.17695 14.10698 5909 ft 263 kts 302°
2026-05-06 18:05 50.18380 14.08011 6562 ft 269 kts 274°
2026-05-06 18:05 50.18130 14.05235 7300 ft 258 kts 243°
2026-05-06 18:05 50.17020 14.03036 8078 ft 259 kts 223°
2026-05-06 18:05 50.15625 14.01198 8856 ft 265 kts 217°
2026-05-06 18:06 50.14138 13.99501 9619 ft 266 kts 216°
2026-05-06 18:06 50.12630 13.97844 10315 ft 268 kts 211°
2026-05-06 18:06 50.10836 13.97109 11027 ft 273 kts 182°
2026-05-06 18:06 50.08891 13.97265 11428 ft 286 kts 187°
2026-05-06 18:07 50.07044 13.96280 11603 ft 280 kts 216°
2026-05-06 18:07 50.05574 13.94298 11740 ft 282 kts 224°
2026-05-06 18:07 50.04636 13.92873 11719 ft 286 kts 224°
2026-05-06 18:07 50.02674 13.89992 11758 ft 307 kts 223°
2026-05-06 18:08 50.01016 13.87696 11755 ft 324 kts 222°
2026-05-06 18:08 49.99336 13.85412 11709 ft 316 kts 221°
2026-05-06 18:08 49.98224 13.83935 11722 ft 311 kts 221°
2026-05-06 18:08 49.96584 13.81769 11754 ft 313 kts 221°
2026-05-06 18:09 49.94924 13.79557 11736 ft 315 kts 221°
2026-05-06 18:09 49.93251 13.77341 11747 ft 312 kts 221°
2026-05-06 18:09 49.91596 13.75141 11740 ft 313 kts 221°
2026-05-06 18:09 49.89951 13.72968 11747 ft 313 kts 221°
2026-05-06 18:10 49.88271 13.70788 11737 ft 313 kts 218°
2026-05-06 18:10 49.86478 13.68912 11747 ft 313 kts 214°
2026-05-06 18:10 49.84623 13.67079 11751 ft 313 kts 214°
2026-05-06 18:10 49.82802 13.65231 11743 ft 314 kts 214°
2026-05-06 18:11 49.80989 13.63354 11876 ft 311 kts 215°
2026-05-06 18:11 49.79214 13.61471 12388 ft 310 kts 215°
2026-05-06 18:11 49.77416 13.59586 13137 ft 312 kts 215°
2026-05-06 18:11 49.75610 13.57673 13893 ft 317 kts 215°
2026-05-06 18:12 49.73778 13.55756 14638 ft 320 kts 215°
2026-05-06 18:12 49.71940 13.53812 15383 ft 323 kts 215°
2026-05-06 18:12 49.70084 13.51871 16138 ft 326 kts 214°
2026-05-06 18:12 49.68193 13.49875 16927 ft 329 kts 215°
2026-05-06 18:13 49.66283 13.47867 17734 ft 332 kts 214°
2026-05-06 18:13 49.64363 13.45849 18481 ft 335 kts 214°
2026-05-06 18:13 49.62453 13.43842 19199 ft 332 kts 214°
2026-05-06 18:13 49.60558 13.41854 19931 ft 332 kts 214°
2026-05-06 18:14 49.58630 13.39829 20698 ft 334 kts 214°
2026-05-06 18:14 49.56715 13.37817 21474 ft 336 kts 214°
2026-05-06 18:14 49.54786 13.35789 22258 ft 339 kts 214°
2026-05-06 18:14 49.52826 13.33725 23062 ft 343 kts 214°
2026-05-06 18:15 49.50810 13.31603 23443 ft 351 kts 214°
2026-05-06 18:15 49.48794 13.29505 23598 ft 352 kts 214°
2026-05-06 18:15 49.46772 13.27408 23713 ft 351 kts 215°
2026-05-06 18:15 49.44786 13.25194 23725 ft 353 kts 217°
2026-05-06 18:16 49.42847 13.22923 23724 ft 352 kts 218°
2026-05-06 18:16 49.40906 13.20644 23729 ft 351 kts 218°
2026-05-06 18:16 49.38953 13.18361 23746 ft 361 kts 218°
2026-05-06 18:16 49.36880 13.15942 23745 ft 379 kts 217°
2026-05-06 18:17 49.34790 13.13502 23739 ft 375 kts 218°
2026-05-06 18:17 49.32735 13.11106 23739 ft 375 kts 218°
2026-05-06 18:17 49.30633 13.08656 23572 ft 378 kts 218°
2026-05-06 18:17 49.28539 13.06218 23152 ft 377 kts 217°
2026-05-06 18:18 49.26478 13.03821 22627 ft 373 kts 218°
2026-05-06 18:18 49.24434 13.01448 22124 ft 369 kts 218°
2026-05-06 18:18 49.22407 12.99099 21599 ft 364 kts 217°
2026-05-06 18:18 49.20388 12.96756 21104 ft 360 kts 217°
2026-05-06 18:19 49.18415 12.94470 20614 ft 356 kts 217°
2026-05-06 18:19 49.16436 12.92175 20117 ft 352 kts 217°
2026-05-06 18:19 49.14496 12.89930 19637 ft 349 kts 217°
2026-05-06 18:19 49.12579 12.87714 19190 ft 347 kts 217°
2026-05-06 18:20 49.10649 12.85483 18732 ft 344 kts 217°
2026-05-06 18:20 49.08746 12.83285 18278 ft 342 kts 217°
2026-05-06 18:20 49.06856 12.81103 17804 ft 341 kts 217°
2026-05-06 18:20 49.04987 12.78943 17289 ft 339 kts 217°
2026-05-06 18:21 49.03090 12.76749 16803 ft 337 kts 217°
2026-05-06 18:21 49.01232 12.74597 16342 ft 336 kts 217°
2026-05-06 18:21 48.99377 12.72450 15882 ft 334 kts 217°
2026-05-06 18:21 48.97527 12.70343 15435 ft 333 kts 217°
2026-05-06 18:22 48.95700 12.68243 14993 ft 332 kts 217°
2026-05-06 18:22 48.93800 12.66227 14550 ft 330 kts 214°
2026-05-06 18:22 48.91890 12.64322 14105 ft 327 kts 213°
2026-05-06 18:22 48.89991 12.62422 13687 ft 324 kts 214°
2026-05-06 18:23 48.88127 12.60518 13220 ft 321 kts 214°
2026-05-06 18:23 48.86289 12.58632 12741 ft 317 kts 214°
2026-05-06 18:23 48.84476 12.56771 12306 ft 313 kts 214°
2026-05-06 18:23 48.82695 12.54940 11947 ft 308 kts 214°
2026-05-06 18:24 48.80941 12.53114 11592 ft 302 kts 214°
2026-05-06 18:24 48.79233 12.51347 11243 ft 297 kts 214°
2026-05-06 18:24 48.77522 12.49578 10893 ft 293 kts 214°
2026-05-06 18:24 48.75857 12.47856 10562 ft 290 kts 214°
2026-05-06 18:25 48.74210 12.46153 10237 ft 289 kts 214°
2026-05-06 18:25 48.72536 12.44420 9900 ft 288 kts 214°
2026-05-06 18:25 48.70895 12.42718 9558 ft 286 kts 214°
2026-05-06 18:25 48.69251 12.41010 9188 ft 285 kts 214°
2026-05-06 18:26 48.67638 12.39328 8780 ft 283 kts 214°
2026-05-06 18:26 48.66044 12.37663 8429 ft 274 kts 214°
2026-05-06 18:26 48.64502 12.36053 8069 ft 267 kts 214°
2026-05-06 18:26 48.62959 12.34485 7723 ft 260 kts 214°
2026-05-06 18:27 48.61480 12.32990 7371 ft 257 kts 214°
2026-05-06 18:27 48.59989 12.31481 7037 ft 255 kts 214°
2026-05-06 18:27 48.58533 12.30018 6803 ft 249 kts 214°
2026-05-06 18:27 48.57109 12.28586 6564 ft 246 kts 214°
2026-05-06 18:28 48.55696 12.27166 6324 ft 244 kts 214°
2026-05-06 18:28 48.54286 12.25748 6108 ft 239 kts 215°
2026-05-06 18:28 48.52929 12.24355 5960 ft 235 kts 214°
2026-05-06 18:28 48.51570 12.22979 5790 ft 236 kts 215°
2026-05-06 18:29 48.50205 12.21585 5625 ft 236 kts 216°
2026-05-06 18:29 48.48844 12.20205 5445 ft 236 kts 215°
2026-05-06 18:29 48.47480 12.18831 5212 ft 238 kts 215°
2026-05-06 18:29 48.46111 12.17462 4964 ft 235 kts 215°
2026-05-06 18:30 48.44762 12.16123 4797 ft 229 kts 216°
2026-05-06 18:30 48.43438 12.14836 4610 ft 224 kts 217°
2026-05-06 18:30 48.42108 12.13621 4426 ft 221 kts 216°
2026-05-06 18:30 48.40800 12.12412 4262 ft 219 kts 217°
2026-05-06 18:31 48.39509 12.11212 4114 ft 217 kts 218°
2026-05-06 18:31 48.38254 12.10007 4004 ft 215 kts 219°
2026-05-06 18:31 48.37019 12.08779 3992 ft 203 kts 220°
2026-05-06 18:31 48.36265 12.07253 4018 ft 175 kts 264°
2026-05-06 18:32 48.36297 12.05512 4066 ft 159 kts 273°
2026-05-06 18:32 48.36302 12.03903 4007 ft 150 kts 264°
2026-05-06 18:32 48.36182 12.02402 4000 ft 143 kts 265°
2026-05-06 18:32 48.36064 12.00862 3983 ft 151 kts 264°
2026-05-06 18:33 48.35940 11.99283 3932 ft 154 kts 264°
2026-05-06 18:33 48.35817 11.97683 3674 ft 152 kts 264°
2026-05-06 18:33 48.35699 11.96174 3437 ft 138 kts 263°
2026-05-06 18:33 48.35595 11.94816 3241 ft 127 kts 264°
2026-05-06 18:34 48.35494 11.93518 3069 ft 121 kts 264°
2026-05-06 18:34 48.35389 11.92275 2914 ft 119 kts 264°
2026-05-06 18:34 48.35273 11.91007 2842 ft 126 kts 264°
2026-05-06 18:34 48.35162 11.89681 2811 ft 130 kts 264°
2026-05-06 18:35 48.35075 11.88366 2612 ft 125 kts 265°
2026-05-06 18:35 48.35001 11.87047 2424 ft 127 kts 262°
2026-05-06 18:35 48.34872 11.85688 2253 ft 135 kts 262°
2026-05-06 18:35 48.34770 11.84282 2044 ft 136 kts 262°
2026-05-06 18:36 48.34655 11.82840 1839 ft 139 kts 264°
2026-05-06 18:36 48.34552 11.81419 1672 ft 135 kts 263°
2026-05-06 18:36 48.34451 11.80052 1499 ft 128 kts 263°
2026-05-06 18:36 48.34360 11.78894 1482 ft 89 kts 264°
2026-05-06 18:37 48.34309 11.78179 1481 ft 57 kts 270°
2026-05-06 18:37 48.34371 11.77827 1480 ft 22 kts 287°
2026-05-06 18:37 48.34399 11.77709 1482 ft 9 kts 293°
2026-05-06 18:37 48.34421 11.77629 1482 ft 8 kts 293°
2026-05-06 18:38 48.34436 11.77578 1478 ft 4 kts 292°
2026-05-06 18:38 48.34460 11.77496 1486 ft 10 kts 297°
2026-05-06 18:38 48.34527 11.77439 1481 ft 14 kts 356°
2026-05-06 18:38 48.34615 11.77423 1486 ft 12 kts 353°
2026-05-06 18:39 48.34687 11.77410 1483 ft 0 kts 353°
2026-05-06 18:39 48.34693 11.77409 1486 ft 5 kts 353°
2026-05-06 18:40 48.34796 11.77358 1480 ft 6 kts 292°
2026-05-06 18:40 48.34792 11.77257 1482 ft 11 kts 264°
2026-05-06 18:40 48.34783 11.77129 1480 ft 13 kts 264°
2026-05-06 18:40 48.34777 11.77001 1485 ft 12 kts 283°
2026-05-06 18:41 48.34847 11.76955 1478 ft 11 kts 353°
2026-05-06 18:41 48.34889 11.76948 1488 ft 0 kts 353°